Location: Johnson City
(36.3130°N, 82.3540°W)
Time: 01:03:04
(UTC-05:00)

Tiangong 2 - Pass Details

Date: 28 October 2018
Orbit: 382 x 393 km, 42.8° (Epoch: 20 November)

Event Time Altitude Azimuth Distance (km) Brightness Sun altitude
Rises 20:57:42 0° 264° (W) 2,252 6.1 -28.8°
Reaches altitude 10° 20:59:51 10° 272° (W) 1,398 4.8 -29.3°
Enters shadow 21:00:20 13° 276° (W) 1,219 4.4 -29.4°
